Wind_Speed
18 19 20 21 22 23 24 25 26 27 27 28 28 28 28 27 27 27 26 26 27 27 28 28 29 29 30 30 30 29 28 27 26 25 24 23 21 20 19 18 18 18 18 18 19 19 19 20 20 20 20 20 20 20 20 20 20 20 21 21 20 20 19 19 19 19 20 20 21
20 21 22 23 24 25 26 27 28 29 29 30 30 30 30 29 29 29 29 29 29 29 30 30 31 31 31 31 31 30 28 27 26 25 24 24 22 20 19 18 18 18 18 18 19 19 20 20 21 21 21 21 21 21 21 21 21 21 22 22 22 21 20 20 19 19 19 20 20
22 23 24 25 26 27 28 29 29 30 31 31 31 31 31 31 31 30 30 31 32 32 31 31 31 32 32 32 31 30 29 28 27 25 25 24 23 21 19 18 18 18 18 18 19 19 20 20 21 21 21 21 21 22 22 22 23 22 22 22 22 22 21 20 20 19 19 20 20
23 24 25 26 27 27 28 29 30 31 31 32 32 32 32 32 32 32 32 33 33 33 32 32 32 32 32 31 31 31 30 28 27 25 24 23 22 20 19 19 19 19 19 19 19 19 20 20 21 22 22 22 22 22 23 23 23 23 23 23 23 23 22 21 21 20 20 20 20
24 25 26 26 27 28 28 29 30 31 32 32 32 32 32 32 32 32 32 33 33 33 33 33 33 33 33 32 31 31 30 29 27 25 24 23 22 21 20 20 20 20 19 19 20 20 20 20 21 22 22 22 23 23 24 24 24 24 24 25 25 25 24 23 23 22 21 21 21
24 25 26 26 27 28 28 29 30 31 32 32 32 32 32 32 32 32 32 33 33 34 34 34 34 33 33 32 32 31 31 29 27 25 24 23 23 22 21 21 21 21 20 20 20 20 21 21 22 22 23 23 23 24 25 25 24 25 25 26 26 25 25 24 24 23 23 23 22
24 24 25 26 26 27 28 29 30 31 31 31 31 31 32 32 33 33 34 34 34 34 34 34 33 33 33 33 33 32 32 30 28 26 24 23 24 23 23 22 22 22 21 21 21 21 21 21 22 22 23 23 24 25 25 25 26 26 27 27 27 27 26 26 25 25 24 24 24
23 24 25 25 26 27 28 29 30 30 30 30 30 31 32 32 33 33 33 33 33 33 33 33 33 33 33 33 33 33 33 31 29 27 26 25 24 24 24 23 23 22 22 21 21 21 21 21 21 22 23 24 24 25 26 26 27 27 28 28 29 28 27 27 26 25 24 24 24
23 24 25 25 26 27 27 28 29 29 29 30 30 31 31 31 31 32 32 32 32 32 33 33 33 33 33 33 33 33 33 32 31 30 29 28 27 26 25 25 24 23 23 22 21 21 21 21 21 22 23 23 24 25 26 27 27 28 29 29 29 29 29 28 27 26 25 24 25
23 24 24 25 25 26 26 27 27 28 28 28 29 29 30 30 30 30 30 31 32 32 33 33 33 34 34 34 34 34 33 33 32 31 31 30 29 28 27 26 25 24 24 23 22 21 21 21 21 21 22 22 23 24 25 25 26 27 28 29 29 29 29 28 27 26 25 25 25
22 23 23 24 24 25 25 26 26 27 27 27 28 29 29 29 30 30 31 31 32 32 33 33 34 34 34 34 34 34 33 33 32 32 31 31 30 30 29 28 27 26 25 24 23 22 21 21 21 21 21 21 21 22 22 23 24 25 26 28 28 29 29 29 28 26 26 26 26
21 22 22 23 24 24 25 26 26 27 27 28 28 29 30 30 30 31 31 32 32 33 33 33 33 34 34 34 34 34 34 33 33 33 33 32 32 32 31 30 29 28 27 26 25 23 22 22 22 21 21 21 21 21 21 22 23 24 26 27 28 29 30 30 29 28 26 26 26
21 22 23 24 25 26 26 27 27 28 29 30 30 31 31 32 32 32 32 33 33 33 34 34 33 33 33 33 33 33 33 33 33 33 33 33 33 33 32 32 31 30 29 28 27 25 24 24 23 23 23 22 22 22 22 22 23 24 26 27 28 29 30 30 30 29 28 27 27
22 24 25 26 27 28 28 29 30 31 32 33 33 33 33 34 34 34 33 33 34 34 34 34 34 33 32 32 33 33 33 33 33 33 34 34 34 33 33 33 32 32 31 30 29 28 27 26 25 25 24 24 24 23 23 23 23 24 25 26 27 28 29 30 30 29 29 28 29
25 27 28 29 30 30 30 31 32 33 33 34 34 34 34 34 34 34 34 34 34 34 34 33 33 33 33 32 32 32 32 33 33 33 33 34 34 33 33 33 33 32 31 31 30 29 29 28 27 27 26 26 25 24 24 24 24 24 25 26 27 28 29 30 30 30 29 29 29
28 29 30 31 31 32 32 33 33 33 34 34 35 35 35 35 34 34 34 34 34 34 33 33 34 34 34 33 33 32 32 32 32 32 32 33 33 33 33 32 32 32 31 31 31 30 30 29 29 28 28 28 27 26 26 25 25 25 25 26 27 28 29 30 30 30 30 30 30
29 30 31 32 32 32 33 33 33 33 34 34 35 35 35 34 34 34 34 34 34 34 34 34 34 34 34 34 33 32 32 32 31 31 31 32 32 32 32 32 32 32 32 31 31 31 31 30 30 30 30 30 29 28 27 27 26 26 26 27 27 28 29 30 30 31 31 31 31
30 30 31 31 32 32 32 33 33 33 34 34 34 34 34 34 34 34 34 34 34 34 35 35 35 35 34 34 34 33 32 32 32 32 32 32 32 33 33 33 33 33 32 32 32 31 31 31 31 31 31 31 30 29 29 28 28 27 27 27 28 29 29 30 31 31 31 31 31
29 30 30 31 31 32 32 32 33 33 33 34 34 34 35 35 35 35 35 35 35 34 34 35 35 35 35 35 34 34 33 33 33 33 33 33 33 33 33 33 33 33 32 32 32 32 32 32 32 31 31 31 31 30 30 29 29 28 28 28 28 29 30 30 31 31 31 31 31
29 30 30 31 31 31 32 32 32 33 33 34 34 35 35 36 36 35 35 35 35 35 34 34 35 35 35 35 35 35 34 34 33 34 34 34 33 33 33 33 33 33 33 32 32 32 32 32 32 32 31 31 31 31 31 31 30 29 29 29 29 29 30 30 31 31 32 32 32
29 30 30 31 31 31 32 32 33 33 34 34 35 35 36 36 36 36 35 35 35 35 35 35 35 35 35 35 35 35 35 34 34 34 34 34 34 34 34 34 33 33 33 33 33 33 33 33 32 32 32 32 32 32 31 31 30 30 30 30 29 29 30 30 30 31 32 32 32
30 30 30 31 31 31 32 32 33 33 34 34 35 35 36 36 36 36 35 35 35 35 35 35 35 35 35 35 35 35 35 35 35 35 35 35 35 35 34 34 34 34 34 34 34 34 34 34 34 33 32 31 31 31 31 31 31 31 31 30 30 30 31 30 30 31 32 32 33
30 30 31 31 31 32 32 32 33 33 34 34 35 35 35 36 36 35 35 35 35 35 35 35 34 34 35 35 35 35 35 35 36 36 36 35 35 35 34 34 33 33 34 34 34 34 34 34 33 32 31 30 30 30 30 29 30 30 30 30 30 30 30 30 30 31 31 32 32
30 31 31 31 31 32 32 32 33 33 34 34 34 35 35 35 36 35 35 35 35 35 35 34 34 35 35 36 35 35 35 34 35 36 36 35 34 34 33 33 32 32 32 32 33 32 32 31 31 30 30 30 29 29 29 28 28 29 29 29 29 29 29 29 29 30 31 31 31
31 31 31 31 32 32 32 32 33 33 33 34 34 34 35 35 35 35 35 35 35 35 35 35 35 35 35 35 35 35 34 33 34 34 34 34 33 33 32 31 30 30 31 31 32 32 32 31 30 29 29 29 29 29 28 28 28 28 29 29 29 29 29 29 30 31 30 30 30
31 31 31 31 32 32 32 32 32 33 33 34 34 34 34 34 34 34 35 35 35 35 36 35 35 35 34 34 34 34 33 32 32 31 31 32 33 33 32 31 30 29 30 31 31 32 32 32 32 31 30 29 28 28 29 29 29 29 29 29 29 29 29 30 31 31 31 31 30
31 31 31 32 32 32 32 32 32 33 33 33 34 34 34 34 33 34 34 35 35 35 35 34 34 34 33 32 33 33 32 32 31 31 32 32 32 33 34 33 31 30 30 31 32 33 33 33 33 32 32 30 29 28 28 29 29 28 28 28 29 29 30 30 31 32 32 31 31
30 30 31 31 32 32 32 33 33 33 33 33 33 33 34 34 33 33 34 35 35 35 35 34 33 32 31 30 31 32 32 32 31 32 33 33 33 34 34 34 34 33 33 33 33 34 34 34 34 34 33 32 30 30 30 30 29 28 28 28 30 30 31 32 32 32 32 31 31
30 30 30 31 32 32 33 33 33 33 33 33 33 33 33 34 34 34 34 34 34 34 33 33 33 31 30 31 32 34 34 34 33 33 33 33 33 34 35 35 35 35 35 35 35 35 35 35 35 35 34 34 32 30 30 29 28 29 30 29 29 30 30 31 31 31 31 31 30
29 29 30 31 32 32 33 33 33 33 33 33 33 33 33 34 34 34 34 34 34 33 32 32 31 31 32 33 34 34 34 34 34 33 32 33 34 35 35 35 35 35 36 36 36 36 36 36 36 36 35 35 34 32 30 30 30 31 31 30 30 31 31 30 30 30 31 31 31
29 29 30 31 32 32 33 33 33 33 33 33 33 33 33 33 33 33 33 33 33 34 33 32 32 33 33 34 34 34 34 35 34 33 33 33 34 35 35 36 37 37 37 37 37 37 37 37 37 36 36 36 34 33 31 31 31 32 32 32 33 33 33 32 31 31 31 32 31
29 29 30 31 31 32 33 33 33 33 33 33 33 33 33 33 33 33 33 33 33 33 33 33 33 34 34 34 34 34 34 34 34 34 34 34 35 36 36 37 38 38 38 38 38 38 38 38 37 37 37 36 35 34 33 33 33 33 34 35 36 35 34 33 31 32 33 32 32
29 29 30 30 31 32 33 33 33 33 33 33 33 33 33 33 33 33 33 32 32 32 32 33 33 33 34 34 34 34 35 35 35 35 35 35 35 36 37 37 38 38 38 38 38 38 38 38 37 37 37 36 35 35 35 34 33 33 33 34 35 36 35 35 34 34 35 34 34
29 29 30 31 31 32 32 32 32 32 32 32 33 33 33 33 33 33 33 33 32 32 32 32 32 32 33 33 33 33 34 35 35 35 35 36 35 36 37 37 37 38 38 38 38 38 38 38 38 38 38 37 36 36 35 35 34 34 34 34 35 36 36 35 36 36 36 35 34
29 29 30 31 32 32 32 32 31 32 32 32 33 33 33 33 33 33 33 32 32 32 32 32 32 32 32 32 32 33 33 34 35 35 36 36 36 36 37 38 39 40 40 40 40 40 40 40 40 40 39 38 37 36 35 35 34 35 35 35 36 36 37 36 36 36 36 36 36
28 29 30 31 32 32 32 31 31 32 32 32 32 33 33 33 33 33 32 32 32 32 32 32 32 32 32 32 33 33 33 34 35 36 36 36 36 36 37 39 40 41 42 41 41 41 41 41 41 41 40 38 36 35 34 33 33 33 34 35 36 37 37 37 37 37 37 36 36
28 29 29 30 31 31 31 31 31 32 32 32 32 32 33 33 33 33 32 31 32 32 32 32 33 33 33 33 33 34 34 35 35 36 37 37 37 37 38 39 40 42 42 42 42 41 41 41 41 41 40 38 36 34 33 32 31 31 32 33 35 36 37 37 37 37 37 37 37
28 28 29 29 30 31 31 31 31 31 31 32 32 32 32 32 32 32 32 31 31 31 32 33 33 33 33 34 34 35 36 36 36 36 37 38 38 38 38 38 40 41 42 42 42 41 41 41 41 41 39 37 36 34 32 31 30 30 31 32 33 34 35 34 34 35 36 38 38
28 28 28 29 29 30 30 30 30 31 31 31 32 32 32 32 32 32 32 31 31 31 32 33 34 34 34 35 35 35 36 37 37 37 37 37 38 38 38 38 39 40 41 42 42 42 42 42 42 41 40 39 37 34 32 30 30 30 31 31 32 32 33 33 33 33 34 36 38
28 28 28 28 28 29 29 30 30 30 30 30 31 31 32 32 32 32 32 31 31 31 31 33 35 35 35 35 35 35 36 38 37 37 37 37 38 39 39 38 39 40 41 42 42 42 42 42 42 42 41 39 37 34 31 30 29 30 30 30 30 30 30 31 31 32 32 34 36
28 28 28 28 27 27 28 29 30 30 30 30 30 31 31 32 31 31 31 31 32 32 32 33 35 36 36 35 34 34 35 37 38 38 38 38 38 39 39 38 38 39 41 42 42 42 42 41 41 41 40 38 36 33 31 29 28 29 30 30 30 29 28 28 29 30 31 32 33
Wind_Direction
334 333 332 331 330 329 327 326 325 324 323 323 321 320 317 314 310 307 306 304 303 302 302 301 301 301 301 302 303 303 303 303 302 301 299 297 295 293 289 284 281 280 280 281 284 286 289 292 294 297 300 302 304 306 306 307 309 311 312 312 311 310 308 304 301 297 293 289 285
337 335 333 332 331 329 328 327 325 324 324 323 321 319 317 314 310 307 305 304 303 302 302 301 300 300 300 301 301 301 301 301 300 299 297 295 292 288 284 279 276 275 275 276 279 281 284 287 291 294 296 299 301 302 303 304 306 307 308 308 309 308 306 303 300 297 295 290 284
336 334 333 332 331 330 329 327 326 325 324 323 322 320 317 314 311 309 306 305 305 304 302 300 300 300 299 299 300 300 300 300 299 297 295 293 289 285 279 274 271 271 271 273 276 278 281 284 287 291 294 296 298 299 300 301 303 304 304 305 306 306 304 301 298 296 294 290 285
334 333 333 332 331 330 328 327 325 324 323 322 321 320 317 315 312 310 309 308 306 304 303 301 301 300 299 299 299 300 300 300 299 296 293 290 287 281 275 270 268 267 268 271 274 277 279 282 285 288 291 294 296 297 298 299 301 300 300 301 303 302 300 297 295 294 292 288 285
333 332 332 331 330 328 327 326 324 323 322 321 320 318 316 315 313 311 309 308 306 305 304 303 302 302 301 301 301 301 302 302 300 296 292 289 284 279 274 269 266 266 267 269 272 274 277 280 283 286 288 291 292 294 295 297 298 297 297 298 299 297 295 293 292 290 289 286 283
332 331 330 329 328 327 326 325 324 323 321 320 318 316 314 313 312 311 309 307 307 307 307 306 305 304 304 304 304 304 304 303 300 295 290 287 283 278 273 269 267 267 267 268 270 272 274 277 280 282 284 286 288 290 292 294 295 294 294 295 295 293 292 290 288 287 285 283 281
331 330 329 328 327 326 325 324 323 322 320 318 316 315 313 313 312 311 310 310 309 309 309 308 307 306 306 305 305 304 304 302 299 294 288 284 282 278 274 271 269 268 268 268 269 270 272 274 276 278 279 282 284 286 289 290 291 291 291 291 291 290 289 287 285 283 281 279 279
329 329 328 327 326 325 324 323 322 320 319 316 315 313 313 313 312 312 312 311 310 310 310 309 308 307 306 305 304 304 303 301 297 293 288 284 280 277 275 273 271 270 269 269 269 269 270 271 272 274 276 278 279 281 284 286 288 288 288 288 289 288 287 284 282 280 277 276 276
328 327 327 326 325 324 322 321 320 318 316 315 314 313 313 313 313 312 311 310 310 310 309 309 308 307 306 305 304 303 301 299 296 292 288 285 281 278 276 274 273 272 271 270 269 268 268 268 269 270 272 274 276 278 280 283 285 286 286 286 286 286 285 282 279 276 274 273 273
327 326 325 324 323 322 321 319 318 317 315 314 314 313 313 313 312 311 311 310 310 309 308 307 307 307 306 305 304 302 301 298 295 292 289 286 283 280 278 276 274 273 272 271 269 268 267 267 266 267 268 270 272 274 277 279 281 282 283 284 284 283 282 280 276 273 270 269 270
325 324 323 322 321 321 320 318 317 316 316 315 314 313 313 312 311 311 310 310 309 308 307 306 306 305 305 304 303 302 300 298 295 292 289 286 284 281 279 277 276 274 273 272 270 269 267 265 264 264 265 266 267 269 271 273 276 277 278 280 280 279 278 276 273 270 268 267 268
323 323 322 322 321 321 320 319 318 317 316 315 314 313 312 311 310 310 309 308 307 306 305 305 304 304 303 302 301 300 299 297 294 292 289 286 284 282 280 279 277 276 275 274 272 270 268 266 264 263 263 263 263 263 265 268 270 272 273 275 275 274 273 272 271 268 266 266 266
323 323 322 322 322 321 321 320 319 317 316 314 312 311 310 309 308 308 307 307 305 304 304 303 303 302 301 300 299 298 297 295 294 291 289 287 285 283 281 280 278 277 276 275 274 272 270 268 266 265 265 264 263 263 263 266 266 267 268 269 269 269 268 268 268 267 265 265 265
324 324 323 323 322 322 321 320 318 316 314 312 310 309 308 308 307 306 306 305 304 303 303 302 302 301 300 299 298 297 296 294 293 291 289 286 285 283 281 280 279 277 276 275 274 273 271 270 269 268 268 267 266 266 265 266 264 263 263 264 264 264 265 265 265 265 264 263 263
325 324 323 323 322 321 320 318 316 313 312 310 309 308 307 306 306 305 305 304 303 302 302 302 301 300 299 298 297 296 295 294 292 290 288 286 285 283 281 280 278 277 276 276 275 274 272 271 271 270 270 269 269 268 267 266 265 262 261 261 261 262 262 263 263 263 262 261 261
325 324 323 322 321 319 317 315 313 311 309 308 307 307 306 306 305 305 304 303 303 302 302 301 300 300 299 298 297 296 295 294 292 290 288 286 285 283 281 280 279 278 277 276 275 274 273 272 272 271 271 271 270 270 269 267 266 264 261 260 260 260 260 260 261 261 261 259 259
324 323 321 320 318 316 314 313 311 309 308 307 306 306 306 305 305 304 304 303 303 302 301 301 300 299 299 298 297 296 295 294 292 290 288 286 285 283 282 280 279 278 277 277 276 275 274 273 272 272 272 271 271 270 269 268 267 265 263 261 259 258 258 258 258 258 258 257 257
322 321 319 318 316 314 312 310 309 308 307 306 306 306 305 305 304 304 303 303 302 302 301 301 300 299 298 298 297 296 295 293 291 289 287 286 284 283 282 281 280 279 278 277 276 275 274 274 273 272 271 271 270 270 269 268 267 266 264 262 259 257 256 255 254 254 254 254 254
320 318 317 315 313 311 310 309 308 307 307 306 306 306 305 305 304 304 303 302 302 301 301 300 300 299 298 297 296 295 294 292 291 289 287 286 285 283 282 281 280 279 278 277 276 275 274 273 272 272 271 270 270 269 269 268 267 265 264 261 259 257 254 253 251 250 250 250 251
317 316 314 312 311 310 309 308 308 307 307 306 306 305 305 304 304 303 303 302 302 302 301 300 299 299 298 297 297 295 294 292 291 289 288 287 285 283 282 281 280 279 278 277 276 275 274 273 272 271 270 270 269 269 269 268 267 265 264 262 259 256 253 251 249 248 247 247 248
315 313 312 311 310 309 308 308 307 307 307 306 306 305 305 304 304 303 302 302 302 301 300 299 299 298 298 297 296 296 294 293 292 290 288 287 285 284 283 282 281 280 279 278 276 275 274 273 272 271 270 269 269 268 268 267 266 264 263 261 259 256 254 251 249 247 246 246 246
313 312 311 310 309 309 308 308 308 308 307 307 306 305 305 304 304 303 302 302 301 301 300 299 298 298 297 297 296 295 295 293 292 290 289 287 286 284 283 282 281 280 279 277 276 275 274 273 272 271 270 269 268 267 266 265 265 263 262 260 258 256 253 251 248 246 246 246 245
312 311 310 310 309 309 309 309 309 308 308 307 306 306 305 304 304 303 302 302 301 300 299 299 298 297 297 296 296 295 294 293 292 290 289 287 286 285 284 282 281 280 278 277 275 274 274 273 272 271 270 269 268 267 265 264 262 262 260 258 256 254 252 249 246 245 244 244 243
311 311 310 310 310 310 309 309 309 309 308 307 306 306 305 304 304 303 303 302 301 300 299 299 298 297 297 296 295 295 293 292 292 291 289 288 287 285 284 283 281 279 277 276 275 274 273 273 272 272 271 269 268 267 265 263 261 260 258 257 256 253 251 248 246 245 245 243 242
311 311 311 310 310 310 310 310 309 308 308 307 306 306 305 304 304 303 302 301 300 300 299 299 298 298 297 296 295 294 293 291 291 290 290 289 288 287 285 284 282 280 278 276 274 273 272 272 271 271 270 269 268 266 264 262 259 257 256 256 254 252 250 249 248 247 246 244 242
311 311 311 311 310 310 310 309 309 308 307 307 306 305 305 304 303 302 302 301 300 300 300 299 298 298 297 296 295 294 293 291 290 289 289 289 289 288 286 285 283 281 279 277 276 275 273 272 271 270 269 268 267 266 264 262 259 256 254 252 251 250 249 249 249 249 248 246 244
311 311 311 311 311 310 310 309 309 308 307 307 306 305 304 304 303 302 301 300 300 300 299 299 298 297 296 295 294 293 292 291 290 289 289 288 288 287 286 285 283 281 279 278 277 276 275 274 273 271 270 268 267 266 264 263 260 257 254 251 250 250 250 250 250 250 249 248 246
311 311 311 311 311 310 309 309 309 308 307 307 306 305 304 304 303 301 301 300 300 300 299 298 298 297 296 294 293 292 292 291 290 289 288 287 286 285 284 283 282 281 279 278 278 277 276 275 274 272 271 270 269 268 266 265 262 260 257 254 253 252 252 251 251 251 250 248 247
311 311 311 311 310 310 309 309 308 308 307 306 306 305 304 303 303 302 301 301 300 300 299 298 298 297 295 293 292 292 291 290 289 288 287 285 284 283 283 282 281 280 279 278 278 277 276 275 274 273 271 270 269 269 267 266 263 261 260 258 256 253 252 252 251 250 250 249 248
311 311 311 310 310 309 309 309 308 307 307 306 306 305 304 304 303 302 301 301 300 299 298 297 296 295 293 292 292 291 290 289 288 287 285 284 283 282 282 282 281 280 279 279 278 276 275 274 273 272 271 270 268 268 267 265 263 262 260 258 256 254 253 251 251 250 250 250 249
312 312 311 310 310 309 309 308 308 308 307 306 306 305 304 303 302 302 301 300 300 299 298 297 295 293 292 291 291 290 289 289 288 287 285 284 283 282 282 282 281 280 279 279 278 277 275 274 273 271 270 268 267 265 264 262 261 260 259 258 257 255 254 253 252 251 250 250 249
312 312 311 310 310 309 309 309 308 308 307 306 306 305 304 303 302 301 301 300 299 299 298 297 295 294 293 292 292 291 289 288 288 287 286 284 283 283 282 282 281 280 279 278 277 276 275 274 273 271 269 268 265 263 261 260 259 258 257 257 256 255 254 253 252 251 250 249 248
313 312 312 311 310 309 309 309 308 308 307 306 306 305 304 303 302 302 301 301 300 299 298 296 295 294 293 293 291 291 290 289 287 286 285 284 283 282 282 281 280 280 279 278 277 276 275 274 273 271 269 267 265 263 260 258 257 256 255 254 254 253 252 251 250 250 250 249 248
313 313 312 311 310 309 309 309 308 308 307 306 306 305 304 304 303 302 302 301 300 298 297 294 293 292 291 291 290 289 288 288 287 285 285 284 282 281 280 280 279 279 279 278 277 276 275 274 272 271 269 267 265 263 260 257 255 254 253 252 252 251 250 249 248 248 248 247 246
314 313 312 311 310 310 310 309 309 308 308 306 306 305 305 304 303 302 301 300 299 298 296 293 292 291 290 289 288 287 286 286 286 285 284 283 282 281 279 279 279 279 279 278 277 276 275 273 272 270 269 267 265 262 259 257 254 252 251 250 250 250 249 248 247 247 246 246 245
313 312 311 310 310 310 310 310 309 309 308 306 306 305 305 304 303 302 301 300 299 298 295 294 292 292 291 290 289 288 287 286 286 285 285 284 282 281 280 279 279 279 279 278 277 275 274 273 271 270 268 266 264 261 258 256 253 252 250 249 248 248 248 247 246 245 245 244 243
313 312 311 310 310 310 310 310 309 309 308 306 306 305 304 304 303 302 301 301 300 298 296 294 293 293 292 291 290 289 288 287 286 285 285 284 282 281 280 279 279 279 279 279 277 275 274 272 271 269 267 265 263 260 257 255 253 251 250 248 247 247 246 246 245 245 244 243 242
313 312 311 310 309 309 309 310 309 308 307 306 305 305 304 304 303 302 302 301 299 297 296 295 294 293 292 291 290 290 289 287 286 285 284 283 283 281 280 279 279 279 280 279 278 276 274 272 271 269 267 264 262 259 256 254 252 250 249 248 248 247 245 244 244 243 242 241 240
313 312 311 310 309 309 309 309 308 307 306 306 305 304 304 303 302 301 301 300 298 296 295 294 294 293 293 292 292 291 289 289 287 286 284 283 283 282 281 280 280 280 280 280 279 277 276 274 272 270 267 265 262 259 256 253 251 249 248 247 247 246 245 243 242 241 241 240 239
313 312 311 310 309 308 309 308 308 307 306 305 304 304 303 302 301 300 300 300 298 296 295 295 295 294 294 293 292 291 290 290 289 288 286 285 284 284 283 282 281 281 281 281 280 278 277 275 273 271 269 266 263 259 256 253 251 249 247 246 245 244 243 242 240 239 239 238 238
312 312 311 310 309 309 308 308 307 307 306 305 303 303 302 302 300 300 300 300 299 297 296 295 295 295 294 293 292 291 290 290 290 290 289 287 287 287 286 284 283 282 282 282 281 279 278 276 275 273 270 267 263 259 256 252 250 248 246 245 243 242 241 240 238 237 236 236 236
Height
785 784 784 783 783 782 781 780 780 779 779 778 777 776 775 775 774 773 772 772 771 770 769 769 768 767 767 766 766 765 765 764 764 764 763 763 763 762 762 762 762 762 761 761 761 760 760 759 759 758 758 757 757 756 756 756 756 756 756 756 756 756 756 756 755 755 755 754 754
784 783 783 782 782 781 780 779 779 778 778 777 776 775 774 774 773 771 770 770 769 768 767 766 766 765 765 764 764 763 763 762 762 761 761 760 760 760 760 759 759 759 759 759 759 759 758 758 757 757 756 755 755 755 754 754 754 754 754 754 754 754 754 753 753 753 753 753 752
783 782 782 781 780 780 779 778 777 777 776 775 775 774 773 772 771 770 769 768 767 766 765 764 764 763 763 762 762 761 761 760 759 759 758 758 758 757 757 757 757 757 757 756 756 756 756 756 755 755 754 754 753 753 752 752 752 752 752 751 751 751 751 751 751 751 751 751 751
781 781 780 780 779 779 778 777 776 775 775 774 773 772 771 770 769 769 767 766 765 764 764 763 762 761 760 760 759 759 759 758 757 757 756 755 755 755 755 754 754 754 754 754 754 754 754 754 753 753 753 752 752 751 750 750 750 750 749 749 749 749 749 749 749 749 749 749 749
780 780 779 779 778 777 777 776 775 774 773 772 771 770 769 769 768 767 766 765 764 763 762 761 760 759 758 758 757 756 756 755 755 754 754 754 753 753 752 752 752 751 751 751 751 751 751 751 751 751 751 750 750 749 749 749 748 748 747 747 748 748 747 747 747 746 746 746 746
779 778 778 777 777 776 775 775 774 773 772 771 770 769 768 767 766 765 764 763 762 761 760 759 758 757 756 755 755 754 754 753 753 752 752 751 751 751 750 749 749 749 749 749 748 748 748 748 749 749 749 749 748 747 747 747 746 746 745 745 745 745 745 744 744 744 744 744 743
778 777 777 776 775 775 774 773 772 772 770 770 769 768 766 765 764 764 762 761 760 759 758 757 756 755 754 754 753 752 751 750 750 750 749 749 749 748 748 747 747 746 746 746 746 745 745 745 745 746 746 746 746 745 745 745 744 744 743 742 742 742 743 742 742 742 742 741 741
776 776 775 774 774 773 773 772 771 770 769 768 767 766 765 764 763 762 760 759 758 757 756 755 754 754 753 752 750 750 749 748 748 747 747 747 746 746 745 745 744 744 744 743 743 743 743 743 743 743 743 743 743 743 743 743 743 742 741 740 739 739 739 739 739 739 739 739 738
775 774 774 773 773 772 771 770 769 769 768 766 765 764 764 762 761 760 759 758 756 755 754 753 752 752 751 750 749 748 747 746 745 745 744 744 744 743 743 742 742 741 741 741 740 740 740 740 740 740 740 740 740 740 740 740 740 739 739 738 737 737 736 736 736 736 736 736 736
774 773 773 772 771 770 770 769 768 767 766 765 764 763 762 760 759 758 757 756 754 753 752 751 750 749 749 748 747 746 745 744 743 743 742 742 741 740 740 739 739 739 738 738 738 738 738 737 737 737 737 737 737 737 737 738 737 737 736 736 735 734 734 733 734 734 734 734 733
773 772 771 770 770 769 768 767 766 765 764 763 762 761 760 759 758 756 755 754 753 751 750 749 749 747 746 745 744 744 743 742 741 741 740 739 739 738 738 737 737 736 736 735 735 735 735 735 734 734 734 734 734 734 734 734 734 734 734 733 733 732 731 730 731 731 731 731 731
771 771 770 769 768 767 766 765 764 763 762 761 760 759 758 757 755 754 753 752 750 749 748 747 746 745 744 743 742 741 740 740 739 738 738 737 736 736 735 734 734 734 733 733 733 733 732 732 732 732 731 731 732 732 732 732 732 732 731 731 730 730 729 728 728 728 729 728 728
770 769 768 767 766 765 764 763 762 761 760 759 758 757 756 754 754 752 751 750 748 747 746 745 744 743 742 741 740 739 738 737 737 736 735 734 734 733 732 732 731 731 730 730 730 730 730 729 729 729 729 729 729 729 729 729 729 729 729 728 728 727 726 725 725 726 726 726 725
768 767 766 765 764 763 762 761 760 759 758 757 756 755 754 753 751 750 749 748 746 745 744 742 741 740 740 739 738 737 736 735 734 733 732 731 730 730 729 729 728 728 727 727 727 727 727 726 726 726 726 725 725 725 726 726 726 726 726 725 725 724 724 723 723 723 723 723 722
766 765 764 764 763 762 761 760 759 758 757 755 754 753 752 751 749 749 747 746 744 743 742 740 739 738 737 736 735 734 733 733 732 730 729 728 727 727 726 725 725 724 724 724 724 724 723 723 723 723 723 722 722 722 723 723 723 723 723 722 722 722 721 721 721 721 721 720 720
764 764 763 762 761 760 760 759 758 757 755 754 753 752 750 749 748 746 745 744 742 741 740 739 737 736 734 734 733 732 731 730 729 728 727 725 724 724 723 722 722 721 721 720 720 720 720 719 719 719 719 719 719 719 719 719 719 719 719 719 719 719 719 718 718 718 718 718 717
763 763 762 761 760 759 759 758 757 755 754 752 751 750 749 747 746 744 743 742 741 739 738 736 735 734 732 731 730 729 729 727 726 725 724 723 722 721 720 719 719 718 718 717 717 716 716 716 716 716 716 715 715 715 715 716 716 716 716 716 716 716 715 715 715 715 715 715 714
763 762 761 760 759 759 757 756 755 754 752 751 749 748 747 745 744 742 741 740 739 737 735 734 732 731 730 729 727 727 726 724 723 722 721 720 719 718 717 716 715 715 714 714 714 713 713 712 712 712 712 712 712 712 712 712 712 712 712 713 712 712 712 712 712 712 712 712 711
762 761 760 759 758 757 756 754 753 752 750 749 747 746 744 743 742 740 739 737 736 735 733 731 729 728 727 726 725 724 723 722 720 719 718 717 716 715 714 713 712 712 711 711 710 709 709 709 709 708 708 708 708 708 708 708 708 709 709 709 709 709 708 708 708 709 709 709 709
761 760 759 758 757 755 754 753 751 750 748 747 745 744 742 740 739 738 736 734 733 732 731 729 727 726 724 723 722 720 719 719 717 716 714 714 713 712 711 710 709 708 708 707 706 706 705 705 705 704 704 704 704 704 704 704 704 704 704 705 705 704 704 704 705 705 705 705 705
759 759 757 756 755 754 752 751 749 748 746 744 743 741 740 738 737 735 734 732 731 729 728 727 725 723 722 720 719 717 716 715 714 713 711 710 709 709 708 707 706 705 704 704 703 702 702 701 701 701 701 701 700 700 700 700 700 700 700 701 701 701 701 701 701 701 701 701 701
758 757 756 754 753 752 750 749 747 746 744 742 741 739 737 736 734 733 731 730 728 727 725 724 722 721 719 718 716 714 713 712 711 709 709 707 706 705 704 704 703 702 701 700 699 699 698 698 697 697 697 697 697 696 696 697 696 696 696 696 697 697 697 697 697 697 698 698 698
756 755 754 752 751 749 748 747 745 744 742 740 738 737 735 733 732 730 729 727 726 724 723 721 720 718 716 715 714 712 710 709 707 706 705 704 703 702 701 701 700 699 697 696 695 695 694 694 694 694 694 694 693 693 693 693 693 692 692 692 692 693 693 693 693 693 694 694 694
754 753 752 750 749 747 746 744 743 741 739 738 736 734 733 731 729 728 726 724 723 721 720 718 717 715 714 712 711 709 708 706 704 702 701 700 699 699 698 697 696 695 694 693 692 691 691 691 690 690 690 690 689 689 689 689 689 689 689 689 689 689 689 689 689 689 689 690 690
753 751 750 748 747 745 744 742 741 739 738 736 734 732 730 729 727 725 724 722 720 719 717 715 714 712 710 709 707 706 704 703 701 699 698 696 696 695 694 694 692 691 690 689 688 688 688 688 688 687 687 686 686 686 685 685 685 685 685 685 685 685 685 685 685 685 686 686 686
751 749 748 746 745 743 742 740 739 737 735 734 732 730 728 726 725 723 721 719 717 716 714 713 711 709 708 706 704 703 701 700 699 697 696 694 693 692 691 690 689 688 686 685 685 685 685 684 684 684 684 684 683 682 682 681 681 681 681 681 681 681 681 680 681 681 682 682 682
749 747 746 744 743 741 740 738 737 735 733 732 730 728 726 724 723 721 719 717 715 713 712 710 708 707 705 703 701 700 698 697 696 695 693 692 690 689 688 687 686 684 683 682 682 681 681 681 681 681 681 680 680 679 678 678 677 677 677 676 676 676 676 676 676 677 678 678 679
747 745 744 742 741 739 738 736 734 733 731 729 728 726 724 722 720 719 716 714 713 711 709 707 706 704 702 700 699 697 695 694 693 692 690 689 687 686 684 683 682 681 680 679 679 678 678 678 677 677 678 677 677 676 675 674 674 673 673 672 672 672 672 672 672 672 673 674 674
745 744 742 740 739 737 735 734 733 731 729 728 726 724 722 720 718 716 714 712 710 709 707 705 703 701 700 698 696 694 693 691 690 689 687 685 684 682 681 680 679 677 676 676 675 675 674 674 674 674 674 674 674 673 672 671 670 669 669 668 668 668 668 668 668 668 669 669 670
743 742 740 739 737 735 733 732 730 729 727 725 724 722 720 718 716 714 712 710 708 706 704 703 701 699 697 695 694 692 690 688 687 685 684 682 680 679 677 676 675 674 673 672 671 671 670 670 670 669 669 670 670 670 669 667 666 665 665 664 664 664 664 664 664 664 664 665 666
741 740 738 737 735 733 731 730 728 727 725 724 722 720 718 716 714 712 710 708 706 704 702 700 699 697 694 693 691 689 687 685 684 683 681 679 677 675 674 673 671 670 669 668 668 667 666 666 665 665 665 666 666 666 664 663 662 661 661 660 659 659 659 660 660 660 660 661 662
739 738 737 735 733 731 729 728 726 724 723 721 719 718 716 714 711 709 708 706 704 701 699 698 696 694 691 690 688 686 684 683 681 679 678 676 674 673 671 669 667 666 665 664 664 663 662 662 661 661 661 661 661 661 660 659 658 657 656 655 655 655 656 656 656 656 657 657 658
738 736 735 733 731 729 727 726 724 723 721 719 717 716 714 711 709 707 705 704 702 699 697 695 693 691 689 687 685 683 681 679 678 676 674 673 671 669 667 665 663 662 661 660 659 659 658 657 657 657 657 657 657 656 655 654 653 652 651 651 650 651 651 652 652 652 652 653 654
736 734 733 731 729 727 725 724 722 720 719 717 715 713 711 709 707 705 703 701 699 697 695 693 691 689 686 684 683 680 678 676 674 673 671 670 668 666 664 662 659 658 657 656 655 654 654 653 653 652 652 652 652 651 650 649 648 648 647 646 646 646 646 647 647 648 648 649 649
734 733 731 729 727 725 724 722 720 719 717 715 713 711 709 707 705 703 700 699 697 694 692 690 688 686 684 682 680 678 676 673 671 669 668 666 664 663 660 658 655 654 653 652 651 650 649 649 648 648 648 647 647 646 645 644 643 642 641 641 641 641 641 642 642 643 643 644 644
733 731 729 727 725 724 722 720 719 717 715 713 710 709 706 704 702 700 698 696 694 692 689 687 685 683 681 679 677 675 673 671 669 666 664 663 661 659 656 653 651 649 648 648 647 646 645 644 643 643 643 643 642 641 640 639 638 637 636 636 636 636 636 637 637 638 638 639 639
731 729 728 725 724 722 720 719 717 715 713 711 709 707 704 702 700 698 696 694 692 689 686 684 682 680 678 676 674 672 670 668 666 663 661 659 657 655 652 649 647 645 644 643 642 641 640 639 638 638 638 638 637 635 635 634 633 632 631 631 630 630 631 632 632 633 633 633 634
729 728 726 724 722 720 719 717 715 713 711 709 707 704 703 700 698 695 693 692 690 687 684 681 679 677 675 673 671 669 666 664 663 660 658 655 653 651 649 646 643 640 639 638 637 636 635 634 633 633 633 632 631 630 630 629 628 627 626 626 626 625 626 627 627 627 628 628 628
728 726 725 723 721 719 717 715 714 712 709 707 704 702 700 698 696 693 691 690 688 685 682 679 676 674 672 671 668 665 663 660 659 657 655 652 649 648 646 643 639 637 635 634 633 631 630 629 628 628 627 627 627 626 625 624 623 622 621 621 621 621 621 622 622 622 622 622 623
726 724 723 721 719 718 716 714 712 710 708 705 703 700 698 696 694 691 689 687 685 683 680 677 674 672 670 668 666 663 659 657 655 653 651 649 646 644 642 640 636 633 631 629 628 627 625 624 623 622 622 622 622 621 620 619 618 617 616 616 616 616 616 616 617 617 617 617 618
724 723 721 719 718 716 714 712 710 708 706 704 701 699 696 694 691 689 687 685 683 681 678 675 672 669 667 665 663 660 657 654 651 649 647 645 643 641 638 636 633 630 627 625 623 622 620 619 618 617 617 617 617 616 615 614 613 612 611 610 611 611 611 611 612 612 612 613 613